This is the latest recevied weather packets stored in our database for station/object KD0SBN. If no packets are shown the sender has not sent any weather packets the latest 10 day(s).
| Time | Temp. | Humidity | Pressure | Rain* | Wind** | Luminosity | Snow |
|---|---|---|---|---|---|---|---|
| 1777760065 | 21.67° C | 22% | 1018.3 hPa | 0 mm | - | - | - |
| 1777759762 | 22.22° C | 22% | 1018.3 hPa | 0 mm | - | - | - |
| 1777759458 | 22.22° C | 22% | 1018.4 hPa | 0 mm | - | - | - |
| 1777759155 | 22.78° C | 21% | 1018.6 hPa | 0 mm | - | - | - |
| 1777758852 | 22.22° C | 21% | 1018.6 hPa | 0 mm | - | - | - |
| 1777758549 | 22.22° C | 22% | 1018.7 hPa | 0 mm | - | - | - |
| 1777758245 | 23.33° C | 21% | 1018.6 hPa | 0 mm | - | - | - |
| 1777757943 | 22.22° C | 22% | 1018.7 hPa | 0 mm | - | - | - |
| 1777757640 | 22.78° C | 21% | 1018.9 hPa | 0 mm | - | - | - |
| 1777757339 | 22.22° C | 22% | 1019.1 hPa | 0 mm | - | - | - |
| 1777757037 | 22.78° C | 22% | 1019.1 hPa | 0 mm | - | - | - |
| 1777756734 | 21.67° C | 23% | 1019.2 hPa | 0 mm | - | - | - |
| 1777756429 | 21.67° C | 24% | 1019.2 hPa | 0 mm | - | - | - |
| 1777756127 | 21.11° C | 24% | 1019.2 hPa | 0 mm | - | - | - |
| 1777755824 | 21.11° C | 23% | 1019.4 hPa | 0 mm | - | - | - |
| 1777755521 | 21.67° C | 24% | 1019.6 hPa | 0 mm | - | - | - |
| 1777755217 | 20.56° C | 23% | 1019.6 hPa | 0 mm | - | - | - |
| 1777754914 | 21.67° C | 23% | 1019.6 hPa | 0 mm | - | - | - |
| 1777754612 | 21.11° C | 24% | 1019.7 hPa | 0 mm | - | - | - |
| 1777754309 | 21.67° C | 23% | 1019.8 hPa | 0 mm | - | - | - |
| 1777754006 | 22.22° C | 24% | 1019.8 hPa | 0 mm | - | - | - |
| 1777753706 | 21.11° C | 25% | 1019.9 hPa | 0 mm | - | - | - |
| 1777753404 | 21.67° C | 24% | 1019.9 hPa | 0 mm | - | - | - |
| 1777753102 | 20.56° C | 25% | 1020.1 hPa | 0 mm | - | - | - |
| 1777752798 | 20° C | 25% | 1020.1 hPa | 0 mm | - | - | - |
* Rain latest hour (hover to see other rain measurements)
** Current wind speed in m/s (hover to see current wind gust speed)